QPF
0.08 0.08 0.07 0.09 0.05 0.04 0.05 0.06 0.07 0.08 0.09 0.08 0.07 0.07 0.09 0.10 0.08 0.08 0.09 0.09 0.09 0.11 0.14 0.16 0.15 0.15 0.15 0.16 0.19 0.20 0.20 0.19 0.17 0.20 0.21 0.17 0.14 0.14 0.12 0.10 0.08 0.09 0.10
0.22 0.25 0.22 0.21 0.10 0.06 0.07 0.09 0.10 0.11 0.10 0.10 0.11 0.13 0.15 0.14 0.14 0.13 0.12 0.11 0.12 0.14 0.16 0.19 0.18 0.16 0.15 0.15 0.16 0.17 0.20 0.19 0.17 0.20 0.21 0.19 0.15 0.12 0.09 0.08 0.08 0.08 0.08
0.43 0.40 0.37 0.32 0.18 0.12 0.12 0.11 0.13 0.14 0.14 0.15 0.14 0.16 0.18 0.21 0.24 0.24 0.22 0.20 0.20 0.17 0.17 0.18 0.17 0.18 0.20 0.22 0.20 0.19 0.21 0.20 0.18 0.17 0.18 0.20 0.21 0.17 0.11 0.09 0.08 0.07 0.06
0.45 0.44 0.46 0.35 0.26 0.19 0.15 0.16 0.18 0.18 0.18 0.19 0.22 0.23 0.24 0.26 0.28 0.30 0.32 0.30 0.26 0.20 0.19 0.19 0.19 0.20 0.20 0.21 0.20 0.18 0.16 0.16 0.16 0.16 0.15 0.14 0.13 0.14 0.12 0.09 0.07 0.06 0.05
0.25 0.30 0.37 0.30 0.24 0.19 0.16 0.15 0.16 0.19 0.23 0.26 0.36 0.32 0.29 0.31 0.34 0.33 0.30 0.26 0.22 0.20 0.22 0.22 0.21 0.21 0.21 0.19 0.16 0.13 0.11 0.11 0.12 0.11 0.11 0.11 0.11 0.10 0.11 0.10 0.07 0.06 0.05
0.09 0.08 0.14 0.18 0.13 0.13 0.14 0.13 0.13 0.15 0.21 0.25 0.33 0.36 0.40 0.41 0.36 0.31 0.27 0.27 0.31 0.31 0.27 0.22 0.19 0.17 0.16 0.15 0.13 0.11 0.08 0.07 0.07 0.08 0.07 0.07 0.08 0.08 0.09 0.09 0.08 0.06 0.05
0.03 0.03 0.04 0.08 0.09 0.09 0.10 0.12 0.12 0.14 0.17 0.20 0.23 0.30 0.36 0.38 0.36 0.32 0.27 0.26 0.24 0.21 0.17 0.14 0.12 0.11 0.10 0.10 0.10 0.08 0.08 0.07 0.07 0.07 0.07 0.07 0.06 0.05 0.05 0.06 0.06 0.05 0.03
0.02 0.02 0.02 0.02 0.03 0.04 0.06 0.06 0.07 0.09 0.12 0.13 0.15 0.18 0.19 0.22 0.22 0.19 0.18 0.17 0.14 0.11 0.10 0.09 0.08 0.08 0.08 0.08 0.08 0.08 0.08 0.07 0.07 0.06 0.06 0.06 0.05 0.05 0.05 0.04 0.04 0.04 0.04
0.02 0.02 0.03 0.02 0.02 0.03 0.04 0.04 0.04 0.05 0.05 0.07 0.08 0.09 0.09 0.11 0.12 0.11 0.09 0.08 0.07 0.07 0.07 0.07 0.06 0.06 0.06 0.07 0.08 0.09 0.09 0.09 0.08 0.06 0.05 0.05 0.04 0.05 0.05 0.05 0.04 0.03 0.03
0.03 0.02 0.02 0.02 0.02 0.02 0.03 0.04 0.03 0.03 0.03 0.04 0.05 0.05 0.06 0.06 0.06 0.05 0.05 0.05 0.05 0.05 0.07 0.07 0.07 0.07 0.07 0.06 0.06 0.07 0.07 0.07 0.08 0.07 0.07 0.07 0.06 0.05 0.04 0.03 0.03 0.02 0.02
0.02 0.02 0.01 0.01 0.01 0.02 0.02 0.02 0.02 0.02 0.02 0.02 0.02 0.02 0.03 0.03 0.03 0.03 0.03 0.03 0.03 0.03 0.04 0.05 0.05 0.05 0.05 0.06 0.06 0.07 0.08 0.09 0.09 0.08 0.07 0.06 0.05 0.04 0.03 0.02 0.02 0.02 0.02
0.01 0.01 0.01 0.01 0.01 0.01 0.01 0.01 0.01 0.01 0.01 0.01 0.01 0.01 0.01 0.01 0.01 0.01 0.02 0.02 0.02 0.03 0.03 0.04 0.04 0.04 0.04 0.05 0.05 0.04 0.04 0.04 0.04 0.04 0.03 0.03 0.02 0.02 0.02 0.02 0.02 0.02 0.02
0.01 0.01 0.01 0.01 0.01 0.01 0.01 0.01 0.01 0.01 0.01 0.01 0.01 0.01 0.01 0.01 0.01 0.01 0.02 0.03 0.03 0.03 0.02 0.02 0.02 0.03 0.03 0.03 0.03 0.03 0.03 0.03 0.03 0.03 0.03 0.03 0.03 0.03 0.02 0.02 0.02 0.02 0.01
0.01 0.01 0.01 0.01 0.01 0.01 0.00 0.00 0.01 0.01 0.01 0.01 0.01 0.01 0.01 0.01 0.01 0.02 0.02 0.01 0.01 0.01 0.01 0.01 0.01 0.02 0.02 0.02 0.02 0.03 0.03 0.03 0.03 0.03 0.03 0.02 0.02 0.02 0.02 0.02 0.02 0.02 0.01
0.04 0.04 0.03 0.03 0.02 0.01 0.01 0.01 0.01 0.01 0.01 0.01 0.01 0.01 0.01 0.01 0.01 0.01 0.01 0.01 0.00 0.00 0.00 0.00 0.00 0.01 0.01 0.01 0.01 0.01 0.01 0.02 0.02 0.02 0.01 0.01 0.00 0.00 0.00 0.00 0.00 0.01 0.01
0.08 0.07 0.06 0.04 0.03 0.02 0.01 0.01 0.01 0.01 0.01 0.01 0.01 0.01 0.01 0.01 0.01 0.01 0.01 0.01 0.00 0.00 0.00 0.00 0.00 0.00 0.00 0.00 0.00 0.00 0.01 0.01 0.01 0.02 0.01 0.01 0.00 0.00 0.00 0.00 0.00 0.00 0.00
0.10 0.09 0.08 0.07 0.05 0.03 0.02 0.01 0.01 0.01 0.01 0.01 0.01 0.01 0.01 0.01 0.00 0.00 0.01 0.01 0.01 0.01 0.01 0.01 0.01 0.01 0.00 0.00 0.00 0.00 0.00 0.01 0.02 0.02 0.02 0.01 0.01 0.01 0.01 0.01 0.00 0.01 0.01
0.14 0.13 0.10 0.07 0.05 0.03 0.02 0.01 0.01 0.02 0.02 0.01 0.01 0.00 0.00 0.00 0.00 0.01 0.01 0.02 0.02 0.02 0.02 0.01 0.01 0.02 0.00 0.00 0.00 0.00 0.00 0.02 0.03 0.03 0.03 0.03 0.03 0.01 0.00 0.00 0.01 0.04 0.07
0.16 0.14 0.12 0.10 0.08 0.05 0.04 0.02 0.02 0.02 0.01 0.01 0.01 0.00 0.00 0.00 0.01 0.01 0.02 0.02 0.02 0.02 0.01 0.01 0.02 0.03 0.01 0.00 0.00 0.00 0.01 0.02 0.03 0.03 0.02 0.01 0.02 0.00 0.00 0.00 0.02 0.05 0.09
0.11 0.09 0.08 0.07 0.05 0.04 0.04 0.03 0.02 0.02 0.01 0.01 0.01 0.01 0.01 0.01 0.01 0.02 0.02 0.02 0.02 0.02 0.01 0.01 0.02 0.03 0.02 0.00 0.00 0.00 0.00 0.02 0.03 0.05 0.06 0.03 0.00 0.00 0.00 0.00 0.01 0.04 0.05
0.05 0.04 0.04 0.05 0.04 0.03 0.03 0.03 0.03 0.02 0.01 0.01 0.01 0.01 0.01 0.01 0.01 0.02 0.02 0.02 0.02 0.02 0.02 0.02 0.03 0.03 0.01 0.00 0.00 0.00 0.00 0.00 0.01 0.05 0.08 0.06 0.00 0.00 0.00 0.00 0.01 0.01 0.01
0.03 0.03 0.04 0.04 0.04 0.03 0.03 0.03 0.03 0.02 0.01 0.01 0.01 0.01 0.01 0.00 0.01 0.02 0.03 0.02 0.02 0.02 0.03 0.03 0.04 0.04 0.03 0.01 0.00 0.00 0.00 0.00 0.01 0.06 0.06 0.03 0.00 0.00 0.00 0.00 0.00 0.00 0.01
0.04 0.04 0.03 0.04 0.04 0.04 0.04 0.05 0.03 0.01 0.01 0.02 0.02 0.02 0.01 0.00 0.00 0.01 0.03 0.02 0.02 0.01 0.01 0.01 0.03 0.03 0.04 0.03 0.00 0.00 0.00 0.00 0.01 0.03 0.01 0.00 0.00 0.00 0.03 0.02 0.00 0.01 0.05
0.04 0.04 0.04 0.04 0.04 0.03 0.04 0.04 0.02 0.01 0.02 0.02 0.02 0.01 0.01 0.01 0.01 0.01 0.00 0.00 0.00 0.00 0.01 0.02 0.03 0.04 0.04 0.02 0.00 0.00 0.01 0.01 0.01 0.01 0.02 0.02 0.02 0.03 0.04 0.05 0.06 0.07 0.08
0.04 0.04 0.05 0.05 0.04 0.03 0.03 0.02 0.01 0.01 0.02 0.02 0.01 0.01 0.01 0.01 0.01 0.01 0.00 0.00 0.00 0.00 0.00 0.00 0.01 0.01 0.02 0.00 0.00 0.00 0.00 0.00 0.00 0.00 0.04 0.09 0.10 0.10 0.10 0.10 0.09 0.09 0.07
0.05 0.06 0.05 0.04 0.03 0.03 0.03 0.01 0.00 0.00 0.01 0.02 0.01 0.01 0.01 0.01 0.01 0.01 0.01 0.00 0.00 0.00 0.00 0.00 0.00 0.00 0.00 0.00 0.00 0.00 0.00 0.00 0.00 0.01 0.05 0.07 0.07 0.06 0.06 0.05 0.05 0.05 0.05
MSLP
1004.04 1004.59 1005.25 1005.97 1006.74 1007.52 1008.28 1009.00 1009.68 1010.31 1010.88 1011.40 1011.87 1012.30 1012.70 1013.09 1013.46 1013.85 1014.25 1014.67 1015.10 1015.54 1015.97 1016.39 1016.77 1017.11 1017.39 1017.62 1017.79 1017.90 1017.96 1017.98 1017.97 1017.93 1017.88 1017.82 1017.76 1017.71 1017.67 1017.65 1017.66 1017.69 1017.75
1004.80 1005.38 1006.02 1006.68 1007.35 1007.99 1008.61 1009.20 1009.77 1010.32 1010.87 1011.40 1011.92 1012.44 1012.94 1013.43 1013.91 1014.39 1014.87 1015.36 1015.85 1016.32 1016.79 1017.22 1017.60 1017.92 1018.17 1018.35 1018.45 1018.50 1018.50 1018.47 1018.42 1018.38 1018.35 1018.33 1018.33 1018.33 1018.35 1018.36 1018.37 1018.40 1018.43
1005.96 1006.53 1007.13 1007.70 1008.23 1008.71 1009.16 1009.58 1010.01 1010.47 1010.97 1011.50 1012.08 1012.68 1013.30 1013.91 1014.52 1015.12 1015.69 1016.26 1016.80 1017.32 1017.81 1018.24 1018.61 1018.90 1019.09 1019.21 1019.24 1019.21 1019.13 1019.05 1018.97 1018.92 1018.90 1018.92 1018.96 1019.02 1019.08 1019.13 1019.16 1019.18 1019.19
1007.49 1008.02 1008.54 1009.00 1009.39 1009.71 1009.97 1010.23 1010.52 1010.87 1011.30 1011.83 1012.45 1013.13 1013.85 1014.59 1015.31 1016.02 1016.69 1017.33 1017.92 1018.46 1018.95 1019.37 1019.71 1019.95 1020.09 1020.14 1020.10 1020.00 1019.86 1019.72 1019.61 1019.54 1019.53 1019.56 1019.63 1019.72 1019.81 1019.88 1019.92 1019.93 1019.91
1009.24 1009.73 1010.17 1010.53 1010.79 1010.97 1011.08 1011.19 1011.34 1011.59 1011.97 1012.48 1013.11 1013.84 1014.64 1015.47 1016.29 1017.08 1017.81 1018.49 1019.10 1019.64 1020.10 1020.49 1020.78 1020.97 1021.06 1021.05 1020.96 1020.81 1020.63 1020.45 1020.31 1020.22 1020.19 1020.23 1020.30 1020.39 1020.48 1020.54 1020.56 1020.53 1020.47
1011.05 1011.51 1011.90 1012.19 1012.37 1012.44 1012.45 1012.45 1012.50 1012.67 1012.99 1013.46 1014.09 1014.84 1015.67 1016.54 1017.40 1018.22 1018.97 1019.64 1020.22 1020.73 1021.15 1021.48 1021.71 1021.85 1021.90 1021.86 1021.74 1021.56 1021.37 1021.17 1021.01 1020.90 1020.86 1020.87 1020.92 1020.98 1021.03 1021.05 1021.02 1020.94 1020.81
1012.75 1013.20 1013.58 1013.85 1013.99 1014.02 1013.99 1013.93 1013.93 1014.04 1014.31 1014.74 1015.33 1016.06 1016.87 1017.72 1018.56 1019.35 1020.06 1020.68 1021.20 1021.63 1021.98 1022.24 1022.42 1022.52 1022.54 1022.48 1022.36 1022.19 1022.00 1021.81 1021.65 1021.53 1021.46 1021.44 1021.44 1021.45 1021.44 1021.39 1021.28 1021.13 1020.93
1014.19 1014.67 1015.07 1015.37 1015.54 1015.60 1015.57 1015.52 1015.50 1015.58 1015.80 1016.18 1016.72 1017.38 1018.12 1018.90 1019.67 1020.37 1021.00 1021.52 1021.95 1022.29 1022.55 1022.74 1022.87 1022.94 1022.94 1022.89 1022.79 1022.65 1022.49 1022.33 1022.18 1022.05 1021.96 1021.89 1021.84 1021.78 1021.70 1021.57 1021.39 1021.15 1020.88
1015.28 1015.82 1016.29 1016.65 1016.89 1017.02 1017.05 1017.05 1017.05 1017.13 1017.32 1017.64 1018.09 1018.66 1019.31 1019.98 1020.63 1021.22 1021.72 1022.14 1022.46 1022.70 1022.88 1023.01 1023.09 1023.13 1023.14 1023.12 1023.05 1022.96 1022.84 1022.70 1022.57 1022.44 1022.33 1022.22 1022.12 1022.00 1021.85 1021.65 1021.40 1021.10 1020.76
1016.04 1016.64 1017.18 1017.63 1017.97 1018.20 1018.32 1018.38 1018.43 1018.52 1018.69 1018.95 1019.32 1019.79 1020.31 1020.85 1021.37 1021.84 1022.23 1022.53 1022.76 1022.92 1023.03 1023.11 1023.16 1023.20 1023.22 1023.23 1023.20 1023.15 1023.07 1022.96 1022.85 1022.72 1022.59 1022.45 1022.31 1022.14 1021.94 1021.69 1021.40 1021.06 1020.68
1016.53 1017.19 1017.80 1018.33 1018.76 1019.07 1019.29 1019.43 1019.53 1019.63 1019.78 1020.00 1020.30 1020.66 1021.07 1021.49 1021.89 1022.25 1022.54 1022.77 1022.92 1023.03 1023.10 1023.16 1023.21 1023.25 1023.29 1023.32 1023.33 1023.30 1023.25 1023.16 1023.05 1022.92 1022.77 1022.62 1022.45 1022.26 1022.03 1021.77 1021.47 1021.11 1020.73
1016.91 1017.59 1018.23 1018.81 1019.29 1019.68 1019.97 1020.17 1020.31 1020.44 1020.58 1020.76 1020.99 1021.27 1021.59 1021.92 1022.23 1022.51 1022.74 1022.92 1023.05 1023.14 1023.21 1023.27 1023.33 1023.39 1023.45 1023.49 1023.51 1023.50 1023.45 1023.36 1023.24 1023.09 1022.93 1022.76 1022.58 1022.38 1022.17 1021.92 1021.63 1021.29 1020.92
1017.31 1017.98 1018.61 1019.18 1019.68 1020.09 1020.42 1020.65 1020.83 1020.97 1021.11 1021.26 1021.45 1021.67 1021.92 1022.19 1022.45 1022.69 1022.89 1023.07 1023.20 1023.31 1023.40 1023.49 1023.57 1023.65 1023.72 1023.77 1023.79 1023.77 1023.70 1023.59 1023.45 1023.28 1023.10 1022.91 1022.73 1022.54 1022.35 1022.13 1021.88 1021.58 1021.24
1017.84 1018.44 1019.01 1019.54 1020.01 1020.41 1020.73 1020.98 1021.17 1021.32 1021.45 1021.59 1021.75 1021.93 1022.15 1022.38 1022.62 1022.85 1023.06 1023.25 1023.41 1023.56 1023.69 1023.81 1023.92 1024.02 1024.10 1024.15 1024.15 1024.10 1024.01 1023.86 1023.68 1023.48 1023.28 1023.08 1022.90 1022.73 1022.56 1022.38 1022.17 1021.91 1021.61
1018.52 1019.03 1019.51 1019.95 1020.35 1020.70 1021.00 1021.24 1021.42 1021.57 1021.70 1021.84 1021.99 1022.16 1022.35 1022.57 1022.80 1023.03 1023.26 1023.47 1023.67 1023.85 1024.02 1024.18 1024.32 1024.43 1024.52 1024.55 1024.53 1024.46 1024.32 1024.14 1023.93 1023.69 1023.47 1023.25 1023.07 1022.91 1022.76 1022.61 1022.43 1022.21 1021.93
1019.32 1019.72 1020.09 1020.43 1020.75 1021.03 1021.28 1021.49 1021.67 1021.82 1021.96 1022.10 1022.25 1022.41 1022.60 1022.81 1023.03 1023.25 1023.48 1023.71 1023.93 1024.14 1024.33 1024.52 1024.67 1024.80 1024.88 1024.91 1024.87 1024.77 1024.61 1024.40 1024.15 1023.89 1023.64 1023.41 1023.22 1023.06 1022.91 1022.77 1022.61 1022.40 1022.12
1020.14 1020.44 1020.71 1020.96 1021.18 1021.40 1021.60 1021.79 1021.96 1022.12 1022.27 1022.41 1022.57 1022.73 1022.91 1023.10 1023.30 1023.51 1023.72 1023.93 1024.14 1024.35 1024.56 1024.75 1024.91 1025.04 1025.13 1025.15 1025.11 1025.00 1024.83 1024.59 1024.33 1024.05 1023.78 1023.53 1023.32 1023.15 1022.99 1022.84 1022.66 1022.44 1022.15
1020.86 1021.09 1021.28 1021.45 1021.61 1021.77 1021.94 1022.11 1022.28 1022.45 1022.62 1022.79 1022.95 1023.11 1023.27 1023.44 1023.60 1023.77 1023.94 1024.11 1024.29 1024.48 1024.66 1024.85 1025.01 1025.15 1025.24 1025.27 1025.24 1025.14 1024.96 1024.73 1024.46 1024.17 1023.89 1023.62 1023.38 1023.17 1022.98 1022.79 1022.57 1022.32 1022.00
1021.41 1021.59 1021.73 1021.85 1021.96 1022.09 1022.25 1022.42 1022.60 1022.80 1022.99 1023.18 1023.35 1023.51 1023.66 1023.79 1023.90 1024.02 1024.13 1024.25 1024.38 1024.53 1024.68 1024.85 1025.01 1025.15 1025.26 1025.31 1025.30 1025.21 1025.05 1024.83 1024.56 1024.27 1023.96 1023.66 1023.38 1023.13 1022.88 1022.64 1022.37 1022.06 1021.69
1021.73 1021.90 1022.02 1022.11 1022.21 1022.33 1022.48 1022.66 1022.87 1023.10 1023.32 1023.53 1023.73 1023.89 1024.02 1024.12 1024.19 1024.25 1024.31 1024.37 1024.45 1024.56 1024.69 1024.84 1025.00 1025.15 1025.27 1025.34 1025.35 1025.29 1025.15 1024.93 1024.66 1024.35 1024.01 1023.68 1023.35 1023.03 1022.72 1022.40 1022.07 1021.70 1021.28
1021.85 1022.02 1022.14 1022.23 1022.33 1022.45 1022.61 1022.82 1023.06 1023.32 1023.57 1023.82 1024.03 1024.20 1024.32 1024.40 1024.45 1024.47 1024.49 1024.51 1024.56 1024.64 1024.75 1024.90 1025.06 1025.22 1025.36 1025.45 1025.48 1025.42 1025.29 1025.06 1024.77 1024.43 1024.05 1023.66 1023.27 1022.88 1022.49 1022.11 1021.71 1021.28 1020.81
1021.83 1022.02 1022.14 1022.24 1022.34 1022.48 1022.66 1022.89 1023.15 1023.44 1023.72 1023.99 1024.23 1024.41 1024.54 1024.62 1024.66 1024.67 1024.68 1024.69 1024.73 1024.81 1024.93 1025.08 1025.25 1025.43 1025.57 1025.67 1025.69 1025.63 1025.47 1025.22 1024.89 1024.50 1024.06 1023.60 1023.13 1022.67 1022.22 1021.77 1021.31 1020.83 1020.33
1021.76 1021.95 1022.09 1022.20 1022.31 1022.46 1022.65 1022.89 1023.17 1023.47 1023.77 1024.06 1024.31 1024.52 1024.67 1024.76 1024.82 1024.85 1024.88 1024.91 1024.98 1025.09 1025.23 1025.40 1025.59 1025.77 1025.91 1025.99 1025.99 1025.89 1025.69 1025.38 1024.98 1024.51 1024.00 1023.47 1022.93 1022.40 1021.89 1021.38 1020.89 1020.38 1019.85
1021.71 1021.90 1022.04 1022.16 1022.28 1022.43 1022.62 1022.86 1023.14 1023.44 1023.75 1024.04 1024.30 1024.52 1024.69 1024.82 1024.91 1024.98 1025.06 1025.15 1025.26 1025.41 1025.60 1025.80 1026.00 1026.18 1026.30 1026.35 1026.30 1026.13 1025.85 1025.46 1024.99 1024.44 1023.85 1023.25 1022.65 1022.07 1021.52 1020.98 1020.46 1019.95 1019.43
1021.72 1021.91 1022.05 1022.17 1022.29 1022.44 1022.62 1022.85 1023.10 1023.39 1023.67 1023.95 1024.21 1024.43 1024.62 1024.78 1024.92 1025.05 1025.18 1025.33 1025.51 1025.72 1025.95 1026.18 1026.39 1026.55 1026.64 1026.63 1026.51 1026.27 1025.90 1025.43 1024.87 1024.25 1023.60 1022.94 1022.31 1021.70 1021.13 1020.60 1020.09 1019.58 1019.08
1021.80 1021.98 1022.13 1022.25 1022.36 1022.50 1022.66 1022.86 1023.09 1023.33 1023.58 1023.83 1024.06 1024.28 1024.48 1024.66 1024.83 1025.01 1025.21 1025.42 1025.66 1025.92 1026.19 1026.43 1026.64 1026.77 1026.82 1026.75 1026.55 1026.23 1025.78 1025.23 1024.61 1023.94 1023.25 1022.58 1021.94 1021.35 1020.80 1020.29 1019.81 1019.34 1018.87
Thickness
5788 5786 5786 5784 5782 5780 5775 5771 5768 5765 5761 5756 5753 5749 5747 5746 5743 5740 5737 5735 5732 5729 5725 5723 5720 5717 5714 5711 5708 5704 5700 5697 5696 5692 5690 5692 5694 5692 5689 5687 5685 5683 5680
5764 5763 5767 5766 5769 5767 5765 5761 5758 5758 5756 5753 5750 5747 5743 5739 5736 5733 5729 5726 5723 5720 5717 5713 5711 5708 5705 5702 5699 5695 5691 5689 5686 5682 5677 5676 5678 5680 5679 5677 5675 5673 5671
5736 5736 5740 5744 5750 5751 5752 5753 5752 5751 5750 5748 5745 5741 5735 5730 5726 5721 5716 5713 5711 5707 5705 5703 5700 5697 5694 5691 5688 5685 5682 5679 5676 5674 5670 5665 5664 5666 5667 5666 5664 5662 5660
5722 5720 5721 5725 5730 5736 5741 5742 5742 5742 5742 5741 5736 5730 5725 5718 5713 5709 5704 5699 5695 5693 5691 5689 5687 5684 5682 5679 5677 5675 5673 5671 5667 5665 5662 5659 5656 5654 5653 5653 5652 5650 5647
5710 5707 5708 5710 5716 5721 5725 5727 5728 5728 5729 5729 5726 5721 5715 5709 5703 5697 5692 5687 5682 5680 5677 5674 5673 5671 5669 5667 5665 5663 5662 5659 5656 5654 5651 5649 5646 5644 5641 5639 5637 5636 5634
5698 5697 5699 5700 5702 5707 5709 5711 5712 5712 5712 5713 5711 5708 5702 5696 5690 5684 5678 5673 5669 5666 5664 5661 5659 5657 5656 5654 5653 5651 5648 5645 5643 5640 5637 5635 5632 5630 5627 5625 5623 5621 5620
5686 5686 5686 5686 5688 5691 5693 5695 5696 5695 5695 5695 5693 5691 5687 5682 5677 5670 5663 5660 5656 5652 5649 5647 5645 5644 5642 5641 5639 5637 5634 5632 5629 5626 5623 5621 5619 5616 5613 5611 5610 5608 5607
5673 5673 5674 5675 5676 5677 5678 5679 5680 5679 5679 5678 5675 5674 5671 5666 5660 5655 5650 5646 5641 5637 5635 5633 5631 5630 5628 5626 5624 5622 5620 5617 5615 5612 5609 5607 5605 5602 5598 5596 5594 5592 5591
5662 5661 5661 5661 5662 5662 5663 5664 5664 5664 5663 5661 5660 5657 5654 5650 5644 5640 5636 5631 5628 5625 5621 5619 5617 5615 5613 5611 5609 5607 5604 5602 5599 5596 5593 5591 5588 5585 5583 5581 5578 5574 5572
5652 5650 5649 5649 5649 5649 5649 5650 5650 5650 5648 5647 5645 5642 5638 5634 5630 5626 5622 5618 5614 5611 5608 5606 5603 5600 5598 5597 5595 5593 5590 5587 5583 5581 5578 5575 5572 5569 5568 5565 5562 5559 5556
5643 5641 5640 5639 5638 5638 5638 5637 5636 5635 5633 5631 5629 5627 5624 5620 5616 5612 5607 5604 5601 5598 5595 5592 5589 5587 5585 5583 5581 5578 5575 5572 5569 5566 5564 5561 5558 5554 5552 5549 5546 5543 5539
5634 5632 5631 5630 5629 5627 5626 5625 5623 5621 5619 5616 5615 5612 5609 5605 5601 5597 5594 5590 5587 5585 5582 5579 5576 5574 5571 5569 5567 5565 5562 5559 5555 5552 5549 5546 5544 5540 5536 5532 5529 5525 5522
5624 5623 5621 5619 5617 5616 5614 5612 5611 5608 5606 5603 5601 5597 5594 5590 5587 5583 5580 5577 5574 5572 5569 5567 5564 5561 5558 5555 5553 5551 5547 5544 5541 5537 5534 5531 5527 5522 5518 5514 5512 5508 5506
5614 5612 5609 5606 5605 5603 5602 5600 5597 5595 5593 5590 5587 5584 5580 5577 5574 5571 5568 5565 5562 5560 5557 5554 5551 5547 5543 5539 5537 5535 5534 5530 5526 5523 5520 5516 5512 5506 5501 5499 5495 5492 5489
5602 5600 5597 5594 5592 5590 5588 5587 5585 5583 5581 5578 5574 5571 5568 5565 5561 5559 5556 5553 5551 5548 5545 5542 5539 5535 5529 5523 5520 5518 5519 5516 5513 5509 5506 5502 5497 5491 5486 5483 5479 5477 5474
5591 5588 5584 5581 5579 5577 5575 5573 5571 5570 5568 5565 5562 5559 5556 5553 5550 5547 5544 5541 5539 5536 5533 5530 5526 5521 5515 5508 5506 5503 5502 5501 5499 5496 5492 5489 5485 5480 5475 5472 5469 5466 5464
5580 5576 5572 5569 5567 5565 5563 5561 5560 5558 5556 5554 5551 5549 5546 5543 5540 5537 5533 5530 5527 5524 5521 5518 5514 5507 5501 5497 5494 5491 5489 5489 5488 5485 5481 5478 5475 5469 5465 5463 5462 5461 5460
5569 5565 5561 5558 5556 5555 5553 5552 5550 5548 5546 5544 5541 5538 5535 5532 5529 5526 5522 5519 5517 5514 5511 5507 5503 5497 5490 5486 5483 5481 5481 5481 5478 5475 5472 5468 5464 5459 5455 5455 5456 5457 5458
5559 5555 5551 5549 5547 5546 5545 5543 5542 5540 5537 5534 5531 5528 5525 5522 5519 5515 5512 5510 5507 5505 5502 5498 5494 5488 5481 5477 5474 5471 5472 5472 5469 5467 5464 5461 5458 5452 5450 5451 5453 5454 5456
5551 5547 5544 5542 5539 5538 5537 5535 5533 5531 5528 5525 5522 5519 5516 5512 5509 5506 5504 5502 5499 5497 5495 5490 5486 5481 5475 5469 5466 5463 5464 5463 5461 5460 5459 5456 5453 5451 5449 5449 5450 5452 5455
5544 5540 5538 5535 5533 5532 5530 5528 5525 5522 5520 5517 5513 5510 5507 5504 5501 5498 5495 5493 5492 5490 5487 5484 5480 5475 5469 5464 5460 5457 5456 5454 5454 5455 5455 5455 5452 5452 5451 5450 5451 5453 5453
5537 5535 5532 5529 5527 5526 5524 5520 5517 5514 5512 5508 5504 5501 5499 5497 5494 5490 5488 5487 5486 5484 5482 5478 5474 5470 5465 5460 5457 5454 5452 5450 5450 5452 5454 5454 5454 5454 5454 5455 5456 5456 5455
5534 5531 5528 5525 5522 5520 5517 5513 5510 5508 5504 5499 5496 5493 5490 5488 5486 5484 5482 5481 5480 5479 5477 5474 5469 5466 5462 5458 5454 5453 5452 5452 5451 5452 5453 5455 5457 5457 5459 5460 5459 5459 5459
5532 5528 5525 5520 5516 5514 5511 5507 5504 5500 5496 5492 5489 5486 5484 5481 5479 5477 5476 5475 5472 5470 5470 5467 5464 5461 5458 5453 5451 5450 5451 5451 5452 5451 5453 5456 5458 5459 5459 5460 5462 5462 5462
5530 5525 5521 5516 5512 5508 5505 5502 5498 5494 5490 5487 5484 5482 5480 5477 5474 5471 5466 5465 5460 5459 5459 5458 5456 5454 5453 5447 5444 5443 5446 5446 5446 5446 5451 5456 5458 5460 5461 5462 5463 5463 5464
5526 5521 5517 5512 5508 5504 5500 5496 5492 5489 5485 5482 5480 5479 5477 5474 5472 5468 5463 5457 5455 5452 5451 5449 5447 5448 5445 5445 5445 5445 5446 5447 5447 5447 5453 5456 5458 5459 5460 5461 5462 5463 5463